[[{"header":{"parameterUnit":"m.s-1","parameterCategory":1,"la1":30.2992,"la2":30.254,"lo1":-89.0895,"lo2":-89.0443,"dy":0.0025,"dx":0.0025,"nx":19,"ny":19,"refTime":"2026-04-03T03:00:00:Z","depth":0,"parameterNumber":2,"parameterNumberName":"U-component_of_WINDS"},"data":[0,0,0,-4.0792,-4.0795,-4.0946,-4.0947,-4.1142,-4.1144,0,0,0,0,0,0,0,0,0,0,0,-4.0748,-4.0749,-4.0792,-4.0795,-4.0946,-4.0947,-4.1142,-4.1144,0,0,0,0,0,0,0,0,0,0,0,-4.0747,-4.0749,-4.0751,-4.0796,-4.0946,-4.0947,-4.1141,-4.1027,0,0,0,0,0,0,0,0,0,0,-4.088,-4.084,-4.0749,-4.0751,-4.0797,-4.0946,-4.0947,-4.1021,-4.1034,-4.1074,0,-4.111,0,-4.113,-4.1157,-4.1157,0,0,0,-4.0795,-4.0829,-4.0869,-4.0751,-4.0798,-4.0946,-4.0878,-4.1028,-4.1042,-4.1091,-4.1113,-4.112,-4.1133,-4.1158,-4.1159,-4.1394,-4.1395,0,0,-4.0786,-4.0776,-4.0859,-4.0879,-4.0855,-4.0873,-4.0883,-4.1037,-4.106,-4.1114,-4.1125,-4.1137,-4.1159,-4.1161,-4.1393,-4.1394,0,0,0,-4.0763,-4.077,-4.0806,-4.0871,-4.0898,-4.0878,-4.0889,-4.1053,-4.1066,-4.1127,-4.1139,-4.116,-4.1163,-4.1392,-4.1393,-4.1437,0,0,0,-4.0758,-4.0756,-4.0802,-4.0797,-4.0895,-4.0977,-4.0901,-4.1055,-4.1073,-4.1138,-4.1161,-4.1165,-4.139,-4.1393,-4.1433,-4.1459,0,0,0,-4.0738,-4.0754,-4.0776,-4.0796,-4.0861,-4.0975,-4.0997,-4.1059,-4.108,-4.1158,-4.1165,-4.139,-4.1392,-4.143,-4.1453,-4.1516,0,0,0,-4.0713,-4.0813,-4.0776,-4.0893,-4.086,-4.1002,-4.0996,-4.1102,-4.1174,-4.1162,-4.1391,-4.1393,-4.1429,-4.145,-4.1512,-4.1565,-4.1587,0,0,-4.0833,-4.0827,-4.0897,-4.0868,-4.1014,-4.0979,-4.1132,-4.1208,-4.1226,-4.1337,-4.1343,-4.1434,-4.1453,-4.1515,-4.1716,-4.1733,0,0,0,-4.0931,-4.098,-4.1021,-4.1089,-4.115,-4.1204,-4.1258,-4.1286,-4.1381,-4.1281,-4.1476,-4.1487,-4.1524,-4.155,-4.1564,-4.1596,-4.1405,-4.1405,-4.1405,-4.1083,-4.11,-4.1216,-4.1252,-4.1318,-4.1373,-4.1428,-4.1476,-4.1475,-4.1521,-4.1553,-4.1673,-4.1702,-4.1713,-4.1746,-4.1584,-4.1585,-4.1585,-4.1585,-4.1258,-4.133,-4.1327,-4.1437,-4.1456,-4.1549,-4.1607,-4.1603,-4.1692,-4.165,-4.1683,-4.1632,-4.1731,-4.1761,-4.1588,-4.1588,-4.1587,-4.1587,-4.1587,-4.1357,-4.1395,-4.1428,-4.1528,-4.1603,-4.1637,-4.1723,-4.1738,-4.1752,-4.1785,-4.182,-4.1819,-4.1818,-4.1801,-4.1802,-4.1802,-4.1803,-4.1803,-4.1803,-4.1446,-4.1482,-4.1553,-4.1627,-4.1672,-4.1734,-4.1792,-4.1837,-4.1891,-4.1894,-4.1895,-4.1888,-4.1739,-4.1699,-4.181,-4.1808,-4.1808,-4.1807,-4.1807,-4.1612,-4.1577,-4.1686,-4.1731,-4.1819,-4.1893,-4.1911,-4.2002,-4.2042,-4.2084,-4.2072,-4.196,-4.1954,-4.1943,-4.191,-4.2068,-4.2068,-4.2068,-4.2068,-4.1694,-4.1694,-4.1808,-4.188,-4.1952,-4.198,-4.2102,-4.2149,-4.2192,-4.2217,-4.2197,-4.2157,-4.2144,-4.2146,-4.213,-4.21,-4.2303,-4.2303,-4.2303,-4.1797,-4.1804,-4.1904,-4.1946,-4.2016,-4.2076,-4.2191,-4.2274,-4.2316,-4.2313,-4.2237,-4.2228,-4.2162,-4.214,-4.2131,-4.2107,-4.2051,0,0]},{"header":{"parameterUnit":"m.s-1","parameterCategory":1,"la1":30.2992,"la2":30.254,"lo1":-89.0895,"lo2":-89.0443,"dy":0.0025,"dx":0.0025,"nx":19,"ny":19,"refTime":"2026-04-03T03:00:00:Z","depth":0,"parameterNumber":3,"parameterNumberName":"V-component_of_WINDS"},"data":[0,0,0,2.7344,2.7346,2.7458,2.7459,2.7597,2.7598,0,0,0,0,0,0,0,0,0,0,0,2.7309,2.731,2.7344,2.7347,2.7458,2.7459,2.7596,2.7598,0,0,0,0,0,0,0,0,0,0,0,2.7308,2.7309,2.7311,2.7347,2.7458,2.7459,2.7596,2.7513,0,0,0,0,0,0,0,0,0,0,2.7406,2.7371,2.7309,2.7311,2.7348,2.7458,2.7459,2.751,2.7519,2.7544,0,2.7567,0,2.7585,2.7607,2.7607,0,0,0,2.7348,2.7363,2.7396,2.7311,2.7349,2.7458,2.7408,2.7515,2.7525,2.7556,2.7569,2.7574,2.7587,2.7608,2.7608,2.7755,2.7756,0,0,2.7342,2.7327,2.7389,2.7402,2.7386,2.7405,2.7412,2.7521,2.7533,2.757,2.7578,2.7589,2.7609,2.761,2.7755,2.7756,0,0,0,2.7323,2.7323,2.7353,2.7397,2.7417,2.7408,2.7416,2.7529,2.754,2.7579,2.7591,2.7609,2.7611,2.7754,2.7755,2.7773,0,0,0,2.732,2.7312,2.735,2.7342,2.7415,2.7474,2.7421,2.7532,2.7545,2.759,2.7609,2.7612,2.7753,2.7755,2.7771,2.7783,0,0,0,2.7302,2.731,2.7325,2.7341,2.7389,2.7473,2.749,2.7535,2.7552,2.7607,2.7613,2.7753,2.7754,2.7769,2.778,2.7819,0,0,0,2.7279,2.7338,2.7325,2.7396,2.7388,2.7483,2.749,2.7561,2.7611,2.761,2.7754,2.7755,2.7768,2.7779,2.7817,2.7849,2.786,0,0,2.7345,2.7345,2.7388,2.738,2.7474,2.7467,2.7564,2.7622,2.764,2.7716,2.772,2.7771,2.778,2.7818,2.7931,2.794,0,0,0,2.7403,2.7434,2.7462,2.751,2.7557,2.7599,2.7645,2.7667,2.7732,2.7676,2.7796,2.7801,2.7824,2.784,2.7848,2.787,2.7762,2.7761,2.7761,2.7474,2.7496,2.7569,2.7605,2.7651,2.7699,2.7738,2.7776,2.7783,2.7811,2.7833,2.7899,2.7918,2.7924,2.7945,2.7852,2.7852,2.7852,2.7852,2.7573,2.762,2.7631,2.7705,2.7728,2.779,2.784,2.7843,2.7905,2.7883,2.7905,2.788,2.7933,2.7953,2.7853,2.7853,2.7853,2.7853,2.7853,2.7622,2.7649,2.7676,2.7749,2.7803,2.7837,2.7897,2.7915,2.7932,2.7953,2.798,2.798,2.7983,2.7965,2.7965,2.7965,2.7966,2.7966,2.7966,2.7662,2.7693,2.7741,2.7799,2.7833,2.788,2.7931,2.7965,2.8008,2.8016,2.8017,2.8022,2.7934,2.7912,2.797,2.7969,2.7968,2.7968,2.7968,2.7755,2.7737,2.7812,2.7847,2.7917,2.797,2.7994,2.8063,2.8093,2.8123,2.8124,2.8056,2.8057,2.8051,2.8033,2.8118,2.8118,2.8118,2.8118,2.7796,2.78,2.7882,2.7936,2.7992,2.8022,2.8107,2.8148,2.8187,2.8207,2.8198,2.8175,2.8168,2.8174,2.8165,2.8148,2.8261,2.8261,2.8261,2.7855,2.7865,2.7934,2.7973,2.803,2.8079,2.816,2.8222,2.8263,2.8268,2.8224,2.8218,2.8183,2.817,2.8172,2.8158,2.8128,0,0]}]]